Flag for USA

Past Weather in Pomona, California, USA — Yesterday and Last 2 Weeks

Now
66 °F

Clear.


Feels Like: 66 °F
Forecast: 91 / 63 °F
Wind: No wind

Location: Chino Airport
Current Time: Sep 23, 2020 at 4:13:58 am
Latest Report: Sep 23, 2020 at 2:53 am
Visibility: 7 mi
Pressure30.00 "Hg
Humidity: 70%
Dew Point: 56 °F
Location of PomonaLocation

Past Weather in Pomona — Graph

°F

Pomona Temperature Yesterday

Maximum temperature yesterday: 97 °F (at 1:53 pm)
Minimum temperature yesterday: 62 °F (at 4:53 am)
Average temperature yesterday: 76 °F

High & Low Weather Summary for the Past Weeks

 TemperatureHumidityPressure
High106 °F (Sep 18, 1:53 pm)83% (Sep 21, 6:53 am)30.06 "Hg (Sep 21, 6:53 am)
Low59 °F (Sep 11, 4:53 am)5% (Sep 17, 2:53 pm)29.65 "Hg (Sep 8, 4:53 pm)
Average78 °F42%29.90 "Hg
* Reported Sep 8 2:53 am — Sep 23 2:53 am, Pomona. Weather by CustomWeather, © 2020

Note: Actual official high and low records may vary slightly from our data, if they occured in-between our weather recording intervals... More about our weather records

Pomona Weather History for the Previous 24 Hours

Scroll right to see more
 ConditionsComfort  
Time TempWeatherWind HumidityBarometerVisibility
2:53 am
Wed, Sep 23
66 °FClear.No wind70%30.00 "Hg7 mi
1:53 am67 °FClear.No wind68%30.01 "Hg8 mi
12:53 am66 °FClear.3 mph68%30.01 "Hg8 mi
11:53 pm
Tue, Sep 22
69 °FClear.No wind63%30.02 "Hg10 mi
10:53 pm70 °FClear.No wind61%30.02 "Hg9 mi
9:53 pm71 °FClear.3 mph59%30.02 "Hg10 mi
8:53 pm73 °FClear.6 mph55%30.01 "Hg10 mi
7:53 pm77 °FClear.13 mph48%29.98 "Hg10 mi
6:53 pm82 °FClear.13 mph32%29.96 "Hg10 mi
5:53 pm88 °FSunny.14 mph23%29.94 "Hg10 mi
4:53 pm91 °FSunny.16 mph24%29.93 "Hg9 mi
3:53 pm93 °FSunny.15 mph23%29.94 "Hg10 mi
2:53 pm95 °FSunny.12 mph24%29.94 "Hg10 mi
1:53 pm97 °FSunny.10 mph19%29.95 "Hg10 mi
12:53 pm94 °FSunny.7 mph25%29.97 "Hg10 mi
11:53 am90 °FSunny.3 mph24%30.00 "Hg10 mi
10:53 am83 °FSunny.No wind41%30.02 "Hg5 mi
9:53 am76 °FSunny.No wind56%30.03 "Hg5 mi
8:53 am70 °FSunny.No wind68%30.02 "Hg4 mi
7:53 am65 °FSunny.No wind78%30.02 "Hg4 mi
6:53 am62 °FSunny.No wind80%30.01 "Hg3 mi
5:53 am63 °FClear.No wind81%30.00 "Hg5 mi
4:53 am62 °FClear.No wind83%29.99 "Hg4 mi
Weather by CustomWeather, © 2020

See weather overview